Location: Unspecified
(0.0000°N, 0.0000°E)
Time: 23:43:26
(UTC+00:00)

USA 103 - Visible Passes

Search period start: 06 June 2023 00:00
Search period end: 16 June 2023 00:00
Orbit: 2181 x 38175 km, 62.6° (Epoch: 25 April)

Date Brightness Start Highest point End Pass type
(mag) Time Alt. Az. Time Alt. Az. Time Alt. Az.
06 Jun 6.4 01:50:09 50° W 02:01:09 52° WNW 12:51:16 10° SSE visible
07 Jun 6.4 01:45:48 50° W 01:56:48 52° WNW 12:46:55 10° SSE visible
08 Jun 6.4 01:41:25 50° W 01:52:27 52° WNW 12:42:34 10° SSE visible
09 Jun 6.4 01:36:59 49° W 01:48:06 52° WNW 12:38:14 10° SSE visible
10 Jun 6.4 01:32:31 49° W 01:43:46 52° WNW 12:33:53 10° SSE visible
11 Jun 6.4 01:28:01 49° W 01:39:25 52° WNW 12:29:32 10° SSE visible
12 Jun 6.4 01:23:28 49° W 01:35:03 52° WNW 12:25:12 10° SSE visible
13 Jun 6.4 01:18:52 49° W 01:30:43 52° WNW 12:20:51 10° SSE visible
14 Jun 6.4 01:14:13 49° W 01:26:22 52° WNW 12:16:31 10° SSE visible
15 Jun 6.4 01:09:31 49° W 01:22:01 52° WNW 12:12:10 10° SSE visible
